This demonstration page uses our WeatherBlox Daily Observations layout. Learn more.

Left ArrowRight Arrow

39.29038, -76.61219

Hourly Observations for July 18, 2020

Temp ( °F °C ) Dew Point ( °F °C ) Humidity (%) Winds ( mph kmh ) Pressure ( in mb ) Visibility ( mi km ) Precip ( " mm )
12:54 am 00:54 Partly Cloudy 82 27.8 74 23.3 77 77 NW 3 6 30.06 1018 10 16 0.00 0.00
1:54 am 01:54 Mostly Clear 80 26.7 73 22.8 79 79 NW 5 7 30.06 1018 10 16 0.00 0.00
2:54 am 02:54 Partly Cloudy 80 26.7 70 21.1 71 71 NNW 5 7 30.05 1018 10 16 0.00 0.00
3:54 am 03:54 Mostly Clear 77 25 68 20 74 74 NW 3 6 30.04 1017 10 16 0.00 0.00
4:54 am 04:54 Mostly Clear 75 23.9 66 18.9 74 74 NW 3 6 30.05 1018 10 16 0.00 0.00
5:54 am 05:54 Mostly Clear 75 23.9 65 18.3 71 71 Calm 30.06 1018 10 16 0.00 0.00
6:54 am 06:54 Mostly Sunny 76 24.4 66 18.9 72 72 NW 3 6 30.07 1018 10 16 0.00 0.00
7:54 am 07:54 Mostly Sunny 82 27.8 65 18.3 56 56 NNE 3 6 30.09 1019 10 16 0.00 0.00
8:54 am 08:54 Mostly Sunny 85 29.4 64 17.8 50 50 ENE 7 11 30.09 1019 10 16 0.00 0.00
9:54 am 09:54 Mostly Sunny 88 31.1 65 18.3 46 46 NE 7 11 30.10 1019 10 16 0.00 0.00
10:54 am 10:54 Mostly Sunny 91 32.8 63 17.2 39 39 E 6 9 30.09 1019 10 16 0.00 0.00
11:54 am 11:54 Mostly Sunny 93 33.9 60 15.6 33 33 N 6 9 30.07 1018 10 16 0.00 0.00
12:54 pm 12:54 Mostly Sunny 95 35 61 16.1 32 32 N 6 9 30.06 1018 10 16 0.00 0.00
1:54 pm 13:54 Mostly Sunny 94 34.4 59 15 31 31 Calm 30.04 1017 10 16 0.00 0.00
2:54 pm 14:54 Mostly Sunny 95 35 59 15 30 30 Calm 30.03 1017 10 16 0.00 0.00
3:54 pm 15:54 Partly Cloudy 98 36.7 60 15.6 28 28 NNW 9 15 30.02 1017 10 16 0.00 0.00
4:54 pm 16:54 Partly Cloudy 97 36.1 58 14.4 27 27 VRB 6 9 30.00 1016 10 16 0.00 0.00
5:54 pm 17:54 Partly Cloudy 94 34.4 63 17.2 36 36 SSE 3 6 29.98 1015 10 16 0.00 0.00
6:54 pm 18:54 Partly Cloudy 93 33.9 63 17.2 37 37 SE 7 11 29.98 1015 10 16 0.00 0.00
7:54 pm 19:54 Mostly Sunny 89 31.7 65 18.3 45 45 SSE 6 9 29.99 1016 10 16 0.00 0.00
8:54 pm 20:54 Mostly Clear 86 30 64 17.8 48 48 S 5 7 30.00 1016 10 16 0.00 0.00
9:54 pm 21:54 Mostly Clear 83 28.3 64 17.8 53 53 SSW 3 6 30.01 1016 10 16 0.00 0.00
10:54 pm 22:54 Clear 79 26.1 65 18.3 62 62 Calm 30.01 1016 10 16 0.00 0.00
11:54 pm 23:54 Partly Cloudy 77 25 66 18.9 69 69 Calm 30.00 1016 10 16 0.00 0.00

Powered by AerisWeather